Location: Stara Lesna
(49.1528°N, 20.2911°E)
Time: 08:09:45
(UTC+02:00)

Meteor 1-14 Rocket - Pass Details

Date: 21 September 2019
Orbit: 833 x 919 km, 81.3° (Epoch: 17 October)

Event Time Altitude Azimuth Distance (km) Brightness Sun altitude
Rises 03:40:35 0° 345° (NNW) 3,395 7.6 -25.7°
Reaches altitude 10° 03:43:01 10° 343° (NNW) 2,455 6.8 -25.4°
Maximum altitude 03:48:29 64° 263° (W) 923 4.1 -24.6°
Enters shadow 03:48:38 64° 254° (WSW) 925 4.1 -24.6°
